Flag for U.S.A. Weather past 2 weeks in Youngstown, Ohio, U.S.A.

Now
74 °F

Passing clouds.


Feels Like: 76 °F
Forecast: 67 / 84 °F
Wind: 8 mph from Southeast

Location: Youngstown-Warren Regional Airport

Current Time: May 29, 2015 at 10:44:20 PM

Latest Report: May 29, 2015 at 9:51 PM


Visibility: 10 mi

Pressure: 30.08 "Hg

Humidity: 71%

Dew point: 64 °F

Location of YoungstownLocation

Historic Weather in Youngstown — Graph

°F

Youngstown temperature yesterday

Maximum temperature yesterday: 78 °F (at 3:51 PM)
Minimum temperature yesterday: 59 °F (at 11:51 PM)
Average temperature yesterday: 68 °F

Past Weeks' High & Low Weather Summary

 TemperatureHumidityPressure
High84 °F (May 29, 3:51 PM)97% (May 16, 11:51 PM)30.46 "Hg (May 16, 11:51 PM)
Low32 °F (May 23, 5:51 AM)22% (May 23, 4:51 PM)29.95 "Hg (May 21, 2:51 PM)
Average64 °F67%30.13 "Hg
* Reported May 14 8:51 PM — May 29 8:51 PM, Youngstown, Weather by CustomWeather, © 2015

Note: Actual official high and low records may vary slightly from our data, if they occured in-between our weather recording intervals... More about our weather records

Advertising

Youngstown weather history for previous 24 hours

 ConditionsComfort  
Time TempWeatherWind HumidityBarometerVisibility
8:51 PM
Fri, May 29
78 °FPartly sunny.7 mph60%30.07 "Hg10 mi
7:51 PM80 °FBroken clouds.8 mph56%30.07 "Hg10 mi
6:51 PM81 °FBroken clouds.10 mph53%30.06 "Hg10 mi
5:51 PM84 °FBroken clouds.13 mph51%30.07 "Hg10 mi
4:51 PM83 °FPartly sunny.9 mph53%30.09 "Hg10 mi
3:51 PM84 °FMostly cloudy.14 mph51%30.11 "Hg10 mi
2:51 PM82 °FCloudy.7 mph55%30.13 "Hg10 mi
1:51 PM83 °FCloudy.12 mph51%30.15 "Hg10 mi
12:51 PM81 °FMore clouds than sun.12 mph54%30.16 "Hg10 mi
11:51 AM78 °FMore clouds than sun.9 mph56%30.18 "Hg10 mi
10:51 AM75 °FPartly sunny.10 mph58%30.18 "Hg10 mi
9:51 AM73 °FScattered clouds.10 mph59%30.20 "Hg10 mi
8:51 AM70 °FPartly sunny.9 mph61%30.20 "Hg10 mi
7:51 AM65 °FPartly sunny.10 mph70%30.20 "Hg10 mi
6:51 AM61 °FPassing clouds.9 mph78%30.21 "Hg10 mi
5:51 AM58 °FPassing clouds.8 mph84%30.20 "Hg10 mi
4:51 AM59 °FPassing clouds.6 mph81%30.20 "Hg10 mi
3:51 AM58 °FPassing clouds.7 mph87%30.19 "Hg10 mi
2:51 AM59 °FPassing clouds.7 mph87%30.20 "Hg10 mi
1:51 AM59 °FPassing clouds.6 mph87%30.21 "Hg10 mi
12:51 AM57 °FClear.6 mph96%30.23 "Hg10 mi
11:51 PM
Thu, May 28
59 °FClear.5 mph93%30.24 "Hg10 mi
10:51 PM65 °FClear.7 mph76%30.24 "Hg10 mi
Weather by CustomWeather, © 2015

See weather overviewHow to use our weather pages